Location: Ingrandes
(47.2833°N, 0.2667°E)
Time: 06:26:04
(UTC+00:00)

Daily predictions for brighter satellites

Satellite Brightness Start Highest point End
(mag) Time Altitude Azimuth Time Altitude Azimuth Time Altitude Azimuth
SL-16 R/B 3.6 18:46:14 10° N 18:50:39 22° NE 18:55:03 10° E
BlueWalker 3 3.9 18:51:59 10° SSE 18:53:35 12° SE 18:55:13 10° ESE
BREEZE M DEB (TANK) 2.1 18:51:04 10° W 18:54:03 64° NNW 18:56:16 10° ENE
BREEZE-M DEB (TANK) 3.7 18:46:28 10° W 18:55:16 67° N 18:58:21 10° E
Cosmos 1674 3.4 18:52:51 10° NNW 18:56:31 56° W 19:00:09 10° S
Landsat 7 4.4 18:53:13 10° SE 18:57:34 38° ENE 19:01:55 10° N
Cosmos 1867 3.6 18:54:20 10° SSW 18:59:43 68° ESE 19:05:09 10° NE
Cosmos 2233 Rocket 4.3 18:53:54 10° N 18:59:48 46° ENE 19:05:43 10° SSE
Cosmos 1864 Rocket 4.4 18:56:19 10° N 19:02:31 74° E 19:08:37 10° SSE
CSL-04 Rocket 4.2 18:59:15 10° SE 19:04:27 43° ENE 19:09:37 10° N
Cosmos 1459 Rocket 4.3 19:00:52 10° NNW 19:06:54 71° W 19:12:57 10° S
Cosmos 1626 4.1 19:04:20 10° NNW 19:07:31 31° W 19:10:41 10° SSW
Cosmos 1703 Rocket 4.5 19:03:27 10° NNW 19:07:48 54° W 19:12:05 10° S
Cosmos 1850 Rocket 4.1 19:02:49 10° NNW 19:08:12 86° ENE 19:13:33 10° SSE
USA 215 3.5 19:03:11 10° NE 19:09:44 75° NNW 19:16:14 10° WSW
Cosmos 1110 Rocket 4.0 19:06:57 10° S 19:12:03 60° ESE 19:17:09 10° NNE
JB-3 4.3 19:08:00 10° NNE 19:12:05 77° ESE 19:16:11 10° S
SL-4 R/B 2.9 19:13:03 10° SSW 19:17:23 38° SE 19:21:29 11° ENE
NOSS 0 Rocket 4.3 19:12:25 10° NNW 19:18:35 68° WSW 19:24:40 10° SSE
Cosmos 1733 Rocket 3.6 19:15:53 10° SSE 19:19:48 35° E 19:23:45 10° NNE
Cosmos 1766 3.7 19:18:14 10° SSE 19:21:43 35° E 19:25:13 10° NNE
Resurs 01 Rocket 2.6 19:19:50 14° ESE 19:22:48 28° ENE 19:26:33 10° N
Cosmos 2237 Rocket 2.2 19:17:16 10° NNW 19:22:57 86° ENE 19:28:35 10° SSE
Cosmos 2061 Rocket 4.1 19:18:08 10° N 19:24:37 87° E 19:31:01 10° S
Cosmos 1331 Rocket 3.9 19:19:54 10° SSW 19:25:01 71° ESE 19:30:11 10° NNE
Cosmos 1725 Rocket 4.1 19:20:04 10° N 19:26:16 81° W 19:32:28 10° S
Cosmos 1378 Rocket 4.3 19:23:45 10° N 19:27:46 33° ENE 19:30:39 16° SE
CZ-4 R/B 2.1 19:24:04 10° S 19:27:49 52° W 19:31:40 10° NNW
Resurs 1-3 3.6 19:23:50 10° SSE 19:28:10 64° ENE 19:32:29 10° N
Cosmos 1805 3.5 19:28:14 10° SSW 19:32:02 70° W 19:35:52 10° N
Feng Yun 1-1 Rocket 4.5 19:26:33 10° S 19:32:07 76° WSW 19:37:53 10° NNW
Cosmos 1452 Rocket 3.8 19:26:52 10° SSW 19:32:07 72° WNW 19:37:26 10° NNE
USA 281 3.7 19:25:37 10° NNE 19:32:08 66° WNW 19:38:36 10° SW
Intercosmos 25 Rocket 4.4 19:25:50 10° N 19:32:59 55° ENE 19:37:03 12° SSE
Cosmos 968 Rocket 3.5 19:29:03 10° NNW 19:34:11 62° ENE 19:38:31 14° SE
SPOT 1/Viking Rocket 3.9 19:30:09 12° SE 19:34:36 45° ENE 19:39:33 10° N
CZ-4B R/B 4.4 19:35:03 10° S 19:40:27 46° W 19:45:51 10° NNW
Landsat 5 4.0 19:37:19 10° NNE 19:40:52 32° E 19:43:42 15° SSE
NOSS 3-4 (A) 3.4 19:37:04 10° SSW 19:42:27 49° ESE 19:48:15 10° NE
NOSS 3-4 (C) 3.4 19:37:13 10° SSW 19:42:34 49° ESE 19:48:20 10° NE
FALCON 9 R/B 4.3 19:15:30 10° WSW 19:44:02 47° S 19:50:26 19° SE
CSL-04 Debris 4.2 19:38:46 10° SSE 19:44:11 86° WSW 19:49:41 10° NNW
Cosmos 1980 4.2 19:39:32 10° NNW 19:45:09 63° WSW 19:50:45 10° SSE
USA 267 3.9 19:39:06 10° SSE 19:45:28 53° SW 19:51:53 10° WNW
Okean-O 2.5 19:46:16 13° SSE 19:50:12 76° ENE 19:54:39 10° N
Okean O Rocket 3.0 19:47:19 10° SSW 19:51:27 39° W 19:55:36 10° NNW
SJ 16-02 2.7 19:48:50 10° N 19:52:21 23° ENE 19:53:11 22° ENE
Cosmos 1908 Rocket 4.4 19:51:55 28° ESE 19:52:26 28° E 19:56:15 10° NNE
Lacrosse 5 rocket 1.9 19:49:37 10° WSW 19:53:51 58° NNW 19:57:54 10° NE
Cosmos 2221 Rocket 3.5 19:49:29 10° N 19:53:54 68° E 19:56:56 19° SSE
ATLAS 3B R/B 4.4 19:49:34 10° NW 19:55:31 25° NNE 20:01:27 11° ENE
SPOT 5 4.3 19:55:00 20° ENE 19:55:47 20° ENE 19:59:20 10° NNE
CZ-4C R/B 3.3 19:49:19 10° NW 19:56:02 50° NE 20:00:54 24° ESE
Ariane Rocket 3.9 19:59:15 26° E 20:00:30 29° ENE 20:04:50 10° N
SWARM A 4.2 19:58:58 15° S 20:01:45 87° E 20:05:15 10° N
Cosmos 2297 Rocket 2.5 19:57:11 10° SW 20:02:48 68° WNW 20:08:28 10° NNE
SJ-6B 4.2 19:59:19 10° SSW 20:02:56 37° W 20:06:30 10° NNW
Cosmos 1271 Rocket 2.5 20:00:00 10° S 20:03:44 87° ESE 20:07:29 10° NNE
Meteor 1-15 Rocket 4.3 19:58:43 10° S 20:04:22 58° E 20:10:09 10° NNE
Cosmos 1464 Rocket 4.3 19:58:47 10° N 20:04:58 50° ENE 20:08:13 27° SE
Meteor 1-24 Rocket 4.0 20:02:12 10° N 20:08:03 54° ENE 20:10:55 30° SE
Cosmos 2346 Rocket 4.5 20:02:07 10° S 20:08:05 57° E 20:14:10 10° NNE
ISS -3.8 20:06:43 10° WNW 20:10:04 69° NNE 20:10:26 61° ENE
PKM 3.9 20:07:01 10° NW 20:10:38 63° NNE 20:11:25 46° E
Cosmos 1447 Rocket 4.5 20:04:42 10° S 20:10:55 85° W 20:17:08 10° N
GEOS 3 Rocket 4.2 20:05:55 10° NE 20:11:15 63° NW 20:16:33 10° SW
Cosmos 2082 4.0 20:06:15 10° S 20:11:27 40° ESE 20:16:40 10° NE
Meteor 2-15 4.5 20:06:03 10° N 20:12:08 61° ENE 20:15:21 28° SSE
Cosmos 1302 Rocket 3.9 20:07:28 10° SSW 20:12:45 87° ESE 20:18:05 10° NNE
Cosmos 1891 Rocket 4.4 20:08:38 10° N 20:14:49 73° E 20:18:57 23° SSE
Cosmos 2219 3.0 20:11:55 10° SSW 20:17:30 76° ESE 20:23:08 10° NNE
USA 186 4.2 20:15:32 10° SSW 20:18:01 22° W 20:20:34 10° NW
MetOp-A 4.1 20:16:26 37° SE 20:18:15 57° ENE 20:23:16 10° N
Cosmos 1470 2.6 20:17:55 46° SSE 20:18:57 72° E 20:22:52 10° NNE
Cosmos 2227 Rocket 2.3 20:13:34 10° SSW 20:19:14 80° WNW 20:24:56 10° NNE
Geosat 3.9 20:29:28 42° SSE 20:31:13 85° WSW 20:36:17 10° NNW
ADEOS Rocket 3.9 20:29:34 33° E 20:31:16 38° ENE 20:37:47 10° N
BlueWalker 3 2.4 20:27:41 10° SW 20:30:39 47° SSW 20:30:39 47° SSW
SL-16 R/B 2.2 20:29:44 10° NNW 20:35:27 80° WSW 20:37:33 41° SSE
Meteor 1-12 Rocket 4.4 20:32:49 10° SSW 20:38:36 76° WNW 20:44:19 10° N
Cosmos 1513 Rocket 4.5 20:34:43 10° N 20:40:49 79° W 20:44:15 28° S
Cosmos 1816 Rocket 4.5 20:40:05 48° SE 20:41:15 55° E 20:47:13 10° NNE
H-2A R/B 2.7 20:44:38 60° NE 20:44:38 60° NE 20:48:44 10° N
Cosmos 1503 Rocket 4.3 20:40:30 10° NNW 20:45:39 51° ENE 20:45:51 50° ENE
Terra 2.8 20:48:27 33° NE 20:48:27 33° NE 20:51:57 10° N
MetOp-B 4.0 20:46:51 57° SSE 20:48:00 85° ENE 20:53:24 10° NNW
SPOT 3 Rocket 3.7 20:48:30 55° ENE 20:48:37 55° ENE 20:53:44 10° N
Cosmos 1992 Rocket 3.8 20:47:40 24° SSW 20:50:52 87° ESE 20:56:06 10° NNE
Meteor 2-5 Rocket 4.0 20:46:05 10° NNW 20:51:55 68° W 20:54:32 34° S
USA 215 4.3 20:46:12 10° NE 20:52:15 42° NNW 20:58:17 10° WNW
Cosmos 220 Rocket 4.1 20:48:43 10° NNW 20:52:24 68° NNW 20:52:24 68° NNW
Cosmos 1486 Rocket 3.9 20:50:47 10° NNW 20:56:09 86° WSW 20:56:42 72° S
SL-4 R/B 2.4 20:51:56 10° WSW 20:56:36 71° NNW 20:56:45 70° N
Resurs 01 Rocket 3.0 20:57:22 24° SW 20:59:10 34° W 21:03:13 10° NNW
CARTOSAT-1 4.2 21:00:14 48° WSW 21:00:40 50° W 21:04:52 10° NNW
Cosmos 2263 Rocket 2.5 21:02:46 49° NE 21:02:46 49° NE 21:06:56 10° NNE
Cosmos 2034 Rocket 3.9 21:02:29 10° N 21:08:42 84° W 21:09:53 61° S
ATLAS 2AS CENTAUR R/B 4.2 21:18:46 24° ENE 21:18:46 24° ENE 21:21:34 10° NE
Cosmos 1025 Rocket 3.9 21:12:37 10° NNW 21:15:46 47° NNW 21:15:46 47° NNW
Tsikada Rocket 3.8 21:18:38 73° ENE 21:18:38 73° ENE 21:24:33 10° NNE
Cosmos 1777 Rocket 4.4 21:14:38 10° NNW 21:18:55 53° NNE 21:18:55 53° NNE
ERS-1 Rocket 3.2 21:22:31 63° N 21:22:31 63° N 21:26:45 10° NNW
SJ 16-02 2.7 21:26:52 10° NNW 21:30:05 37° WNW 21:30:05 37° WNW
Lacrosse 5 rocket 3.5 21:30:01 10° WNW 21:33:21 23° NNW 21:33:25 23° N
SPOT 5 3.6 21:34:11 50° WNW 21:34:11 50° WNW 21:38:13 10° NNW
Cosmos 1943 3.4 21:32:45 10° NNW 21:37:36 66° NW 21:37:36 66° NW
Ariane Rocket 3.9 21:39:24 42° W 21:39:24 42° W 21:44:07 10° NNW
Cosmos 1603 4.0 21:33:39 10° NNW 21:38:29 62° N 21:38:29 62° N
CZ-4C R/B 3.3 21:37:45 10° NW 21:44:54 56° WSW 21:46:05 52° SSW
ATLAS 3B R/B 3.2 21:40:38 10° NW 21:48:01 53° NE 21:48:41 52° ENE
Cosmos 2279 Rocket 4.4 21:43:20 10° N 21:48:21 55° NNE 21:48:21 55° NNE
Spot 2 Rocket 4.4 21:50:49 47° WNW 21:50:49 47° WNW 21:54:48 10° NNW
ADEOS Rocket 3.8 22:16:30 48° W 22:16:35 48° W 22:23:27 10° NNW
Terra 4.0 22:27:11 22° WNW 22:27:11 22° WNW 22:29:28 10° NW
USA 215 4.3 22:33:00 36° NE 22:34:26 40° N 22:40:27 10° WNW
Cosmos 2344 4.0 22:29:37 10° NW 22:38:18 85° NE 22:38:57 80° ESE
NOSS 3-1 (C) 4.2 22:32:49 10° NW 22:39:12 65° N 22:39:12 65° N
Cosmos 2263 Rocket 4.1 22:44:18 22° WNW 22:45:49 25° NW 22:50:23 10° N
ATLAS 2AS CENTAUR R/B 3.4 23:06:05 55° NNW 23:06:05 55° NNW 23:12:43 10° NE
ATLAS 3B R/B 4.1 23:31:35 10° NW 23:35:56 34° WNW 23:35:56 34° WNW
Cosmos 2082 Rocket 4.2 23:43:49 10° NNW 23:46:25 23° N 23:46:25 23° N
